Weather History for Fryeburg, ME

Change the Weather History Date:

Tuesday, February 26, 2013

  Actual Average Record
Temperature  
Mean Temperature 32 °F -  
Max Temperature 39 °F 34 °F 51 °F (2002)
Min Temperature 26 °F 12 °F -18 °F (2003)
Degree Days  
Heating Degree Days 32    
Moisture  
Dew Point 27 °F    
Average Humidity 79    
Maximum Humidity 100    
Minimum Humidity 55    
Precipitation  
Precipitation 0.00 in - - ()
Sea Level Pressure  
Sea Level Pressure 30.31 in    
Wind  
Wind Speed 0 mph (ESE)    
Max Wind Speed 4 mph    
Max Gust Speed -    
Visibility 10 miles    
Events Rain    
Averages and records for this station are not official NWS values.
T = Trace of Precipitation, MM = Missing Value Source: NWS Daily Summary

Daily Weather History Graph

Daily Weather History Graph

Search for Another Location

Airport:

Trip Planner

Search our weather history database for the weather conditions in past years. The results will help you decide how hot, cold, wet, or windy it might be!

Date:

Astronomy

Feb. 26, 2013 Rise Set
Actual Time 6:25 AM EST 5:28 PM EST
Civil Twilight 5:56 AM EST 5:57 PM EST
Nautical Twilight 5:22 AM EST 6:31 PM EST
Astronomical Twilight 4:49 AM EST 7:04 PM EST
Moon 6:46 PM EST (2/26) 6:22 AM EST (2/26)
Length of Visible Light 12h 01m
Length of Day
11h 03m
Full, 99% of the Moon is Illuminated
Feb 26
Full
Mar 4
Last Quarter
Mar 11
New
Mar 19
First Quarter
Mar 27
Full

Hourly Weather History & Observations

Time (EST) Temp. Windchill Dew Point Humidity Pressure Visibility Wind Dir Wind Speed Gust Speed Precip Events Conditions
12:54 AM 28.9 °F - 27.0 °F 92% 30.26 in 10.0 mi Calm Calm - N/A   Overcast
1:54 AM 28.0 °F - 28.0 °F 100% 30.27 in 10.0 mi Calm Calm - N/A   Overcast
2:54 AM 28.9 °F - 28.0 °F 96% 30.26 in 10.0 mi Calm Calm - N/A   Overcast
3:54 AM 28.0 °F - 27.0 °F 96% 30.30 in 10.0 mi Calm Calm - N/A   Overcast
4:54 AM 27.0 °F - 25.0 °F 92% 30.30 in 10.0 mi Calm Calm - N/A   Overcast
5:54 AM 26.1 °F 21.9 °F 24.1 °F 92% 30.33 in 10.0 mi WNW 3.5 mph - N/A   Overcast
6:54 AM 27.0 °F - 25.0 °F 92% 30.34 in 10.0 mi Calm Calm - N/A   Overcast
7:54 AM 30.0 °F - 28.9 °F 96% 30.35 in 10.0 mi Calm Calm - N/A   Overcast
8:54 AM 32.0 °F - 30.0 °F 92% 30.36 in 10.0 mi Calm Calm - N/A   Overcast
9:54 AM 35.1 °F - 28.9 °F 78% 30.36 in 10.0 mi Calm Calm - N/A   Overcast
10:54 AM 37.9 °F - 25.0 °F 60% 30.35 in 10.0 mi Calm Calm - 0.00 in Rain Light Rain
11:54 AM 39.0 °F - 26.1 °F 60% 30.33 in 10.0 mi Calm Calm - 0.00 in Rain Light Rain
12:54 PM 39.0 °F 36.8 °F 25.0 °F 57% 30.32 in 10.0 mi ESE 3.5 mph - 0.00 in   Overcast
1:54 PM 39.9 °F - 25.0 °F 55% 30.32 in 10.0 mi Calm Calm - N/A   Overcast
2:54 PM 39.9 °F - 25.0 °F 55% 30.31 in 10.0 mi Calm Calm - N/A   Overcast
3:54 PM 39.0 °F - 26.1 °F 60% 30.30 in 10.0 mi Calm Calm - N/A   Overcast
4:54 PM 37.9 °F - 26.1 °F 62% 30.30 in 10.0 mi Calm Calm - N/A   Overcast
5:54 PM 35.1 °F - 27.0 °F 72% 30.30 in 10.0 mi Calm Calm - N/A   Overcast
6:54 PM 35.1 °F 32.2 °F 27.0 °F 72% 30.30 in 10.0 mi ESE 3.5 mph - N/A   Overcast
7:54 PM 34.0 °F - 27.0 °F 75% 30.30 in 10.0 mi Calm Calm - N/A   Overcast
8:54 PM 32.0 °F - 27.0 °F 82% 30.31 in 10.0 mi Calm Calm - N/A   Overcast
9:54 PM 30.9 °F - 27.0 °F 85% 30.28 in 10.0 mi Calm Calm - N/A   Overcast
10:54 PM 28.9 °F - 26.1 °F 89% 30.27 in 10.0 mi Calm Calm - N/A   Overcast
11:54 PM 28.0 °F - 26.1 °F 92% 30.24 in 10.0 mi Calm Calm - N/A   Partly Cloudy